Location: Kam�li
(14.6864°N, 3.1482°W)
Time: 14:08:06
(UTC+00:00)

Daily predictions for brighter satellites

Satellite Brightness Start Highest point End
(mag) Time Altitude Azimuth Time Altitude Azimuth Time Altitude Azimuth
Meteor 1-11 4.4 17:56:15 10° N 18:02:02 87° W 18:07:51 10° S
Geosat 4.4 17:58:50 10° NE 18:03:36 44° ESE 18:08:21 10° S
SKYMED 2 3.6 18:00:41 10° NNE 18:05:01 86° E 18:09:21 10° S
CZ-2C R/B 3.5 18:03:08 10° S 18:05:19 14° SE 18:07:27 10° ESE
AQUARIUS 4.2 18:02:08 10° SSE 18:06:38 86° ENE 18:11:07 10° N
Cosmos 44 Rocket 4.0 18:05:26 10° SW 18:09:57 54° WNW 18:14:36 10° NNE
Meteor 2-16 Rocket 4.4 18:07:47 10° N 18:13:52 73° E 18:19:57 10° S
MOS 1 Rocket 4.2 18:13:25 10° NE 18:17:56 32° E 18:22:37 10° SSE
Cosmos 2219 4.0 18:15:07 10° NNE 18:20:02 29° ENE 18:24:56 10° SE
CZ-4B R/B 4.1 18:16:03 10° S 18:21:33 55° WSW 18:27:01 10° NNW
Cosmos 1953 Rocket 4.0 18:20:57 10° NNW 18:25:22 67° W 18:29:48 10° S
Cosmos 967 Rocket 4.5 18:20:41 10° SSW 18:27:04 72° ESE 18:33:27 10° NNE
Cosmos 1408 3.9 18:24:36 10° NE 18:27:15 19° E 18:29:54 10° SE
IRS-1C Rocket 4.3 18:22:56 10° SSE 18:27:56 45° ENE 18:32:54 10° N
Centaur AC-119 4.3 18:23:23 10° WNW 18:28:25 19° NNW 18:30:57 10° NNE
Cosmos 1939 Rocket 3.0 18:24:37 10° SSE 18:28:30 47° ENE 18:32:18 10° N
USA 281 3.2 18:23:32 10° SSE 18:30:06 84° ENE 18:36:40 10° NNW
Longmarch 3A Rocket 2.2 18:28:19 10° NW 18:30:30 38° NNE 18:35:03 14° E
Cosmos 968 Rocket 4.3 18:28:26 10° NNE 18:32:41 26° ENE 18:36:52 10° SE
CZ-2C R/B 4.0 18:33:33 16° E 18:34:23 17° E 18:37:40 10° SE
SL-16 R/B 3.4 18:33:43 10° SSE 18:37:54 21° ESE 18:39:25 19° E
Delta 7925 Rocket 4.1 18:34:45 10° WSW 18:41:40 64° NNW 18:45:32 20° NE
Cosmos 1076 Rocket 4.5 18:38:22 10° NNE 18:41:50 24° E 18:45:19 10° SE
Cosmos-2242 3.6 18:39:32 10° SSE 18:43:22 34° E 18:46:01 17° NE
Cosmos 1892 2.6 18:40:07 10° N 18:43:57 64° E 18:47:46 10° SSE
GPS 2-12 Rocket1 3.7 18:40:51 10° W 18:45:06 47° SSW 18:48:26 16° SE
Helios 1A Rocket 3.1 18:42:08 10° SSE 18:46:05 46° ENE 18:50:02 10° N
SEDSat Delta rocket 4.5 18:41:24 10° WSW 18:48:02 55° NNW 18:52:42 19° NE
YAOGAN 1 3.1 18:45:26 10° SE 18:49:19 33° ENE 18:53:12 10° NNE
CZ-4 R/B 4.3 18:45:32 10° SSE 18:49:39 68° ENE 18:53:46 10° N
Cosmos 883 Rocket 4.4 18:44:06 10° S 18:50:17 75° E 18:56:24 10° N
Cosmos 2227 Rocket 2.5 18:45:37 10° N 18:50:58 43° ENE 18:56:18 10° SE
CZ-2D R/B 3.1 18:49:30 10° SSE 18:53:18 75° ENE 18:57:05 10° N
SL-08 ROCKET BODY 4.4 18:47:14 10° N 18:53:24 74° E 18:59:34 10° S
Cosmos 1812 Rocket 4.2 18:51:26 10° SSW 18:55:46 56° W 19:00:05 10° N
CZ-4 R/B 1.3 18:52:58 10° SSE 18:56:49 53° ENE 19:00:36 10° N
Cosmos 2315 Rocket 3.9 18:54:53 10° S 19:01:05 74° E 19:07:15 10° N
Cosmos 1486 Rocket 3.9 18:57:27 10° N 19:02:41 63° ENE 19:07:52 10° SSE
ASC 2 Rocket 3.7 18:59:00 10° NW 19:03:04 42° NNE 19:04:12 36° NE
Hubble Space Telescope 2.8 19:01:06 10° W 19:04:30 25° SSW 19:07:30 12° SSE
Milstar 3 3.9 19:01:39 10° NW 19:07:26 28° N 19:09:47 23° NE
Atlas Centaur 2 4.3 19:02:23 10° NW 19:09:08 26° N 19:12:40 20° NE
Cosmos 1980 Rocket 3.9 19:06:19 10° SW 19:11:16 31° WNW 19:16:13 10° N
CZ-2C R/B 3.2 19:08:56 10° SSE 19:14:44 75° ENE 19:20:29 10° N
CCE 1 Rocket 4.4 19:10:21 10° WNW 19:15:06 77° SSW 19:19:14 28° SE
CSL-04 Debris 4.4 19:10:56 10° SSE 19:16:46 46° NE 19:21:19 10° N
GPS 2-14 Rocket1 3.5 19:14:52 10° W 19:18:51 44° SSW 19:19:24 42° S
Cosmos 1346 Rocket 3.3 19:15:14 10° NNW 19:19:10 59° W 19:23:04 10° S
SWIFT 3.8 19:16:20 10° W 19:20:05 30° SSW 19:21:11 26° S
Cosmos 2058 3.6 19:16:37 10° NNW 19:20:37 54° W 19:24:38 10° S
NOAA 15 4.5 19:15:43 10° SSE 19:21:00 89° E 19:26:20 10° NNW
Cosmos 2297 Rocket 2.9 19:24:51 10° NNW 19:30:20 54° WSW 19:35:48 10° S
EO 1 Delta rocket 4.2 19:29:50 24° N 19:32:36 64° W 19:37:38 10° SSW
Okean-O 3.8 19:29:33 10° S 19:33:43 41° W 19:37:53 10° NNW
H-2A R/B 3.0 19:29:35 10° SSE 19:37:10 36° N 19:40:19 10° N
Cosmos 2322 Rocket 2.3 19:38:40 10° SSW 19:43:24 63° S 19:43:24 63° S
CZ-2C R/B 2.9 19:40:41 10° WSW 19:43:09 33° WSW 19:43:09 33° WSW
CZ-2C R/B 4.1 20:15:04 32° W 20:15:04 32° W 20:19:14 10° SW
SL-16 R/B 3.9 20:16:53 10° SW 20:21:23 29° WNW 20:21:23 29° WNW
H-2A R/B (2) 4.4 20:00:20 10° W 20:30:30 37° NNW 20:30:54 37° N
